Location: Unspecified
(0.0000°N, 0.0000°E)
Time: 10:56:10
(UTC+01:00)

Cosmos 2237 Rocket - Visible Passes

Search period start: 09 February 2016 00:00
Search period end: 19 February 2016 00:00
Orbit: 835 x 850 km, 71.0° (Epoch: 08 February)

Date Brightness Start Highest point End Pass type
(mag) Time Alt. Az. Time Alt. Az. Time Alt. Az.
09 Feb 3.9 04:35:29 27° E 04:35:29 27° E 04:39:36 10° SE visible
09 Feb 3.4 06:17:23 18° W 06:18:41 20° WSW 06:22:41 10° SSW visible
10 Feb 4.4 04:22:07 21° ESE 04:22:07 21° ESE 04:24:40 10° SE visible
10 Feb 3.4 06:04:01 21° WSW 06:04:01 21° WSW 06:08:02 10° SSW visible
11 Feb 4.8 04:08:40 14° ESE 04:08:40 14° ESE 04:09:43 10° SE visible
11 Feb 3.6 05:50:34 20° SW 05:50:34 20° SW 05:53:23 10° SSW visible
12 Feb 3.9 05:37:01 17° SW 05:37:01 17° SW 05:38:42 10° SSW visible
13 Feb 4.3 05:23:25 13° SSW 05:23:25 13° SSW 05:24:01 10° SSW visible
